| time (UTC) | temp C | wind direction | speed KPH | gust KPH | rain 1hr cm | rain 24hr cm | rain mn cm | humidity % | barometer mb |
| 20260503015200 | 5 | 146 | 3.2 | 4.8 | 0.00 | 0.00 | 0.00 | 82 | 1004.3 |
| 20260503014259 | 5 | 128 | 3.2 | 3.2 | 0.00 | 0.00 | 0.00 | 81 | 1004.3 |
| 20260503013359 | 5 | 148 | 3.2 | 3.2 | 0.00 | 0.00 | 0.00 | 81 | 1004.4 |
| 20260503010700 | 6 | 351 | 3.2 | 6.4 | 0.00 | 0.00 | 0.00 | 79 | 1004.5 |
| 20260503005759 | 6 | 96 | 4.8 | 6.4 | 0.00 | 0.00 | 0.00 | 78 | 1004.4 |
| 20260503004901 | 7 | 52 | 6.4 | 8.0 | 0.00 | 0.00 | 0.00 | 77 | 1004.3 |
| 20260503003959 | 7 | 344 | 4.8 | 11.3 | 0.00 | 0.00 | 0.00 | 77 | 1004.3 |
| 20260503003059 | 7 | 140 | 3.2 | 6.4 | 0.00 | 0.00 | 0.00 | 76 | 1004.3 |
| 20260503002159 | 7 | 136 | 4.8 | 6.4 | 0.00 | 0.00 | 0.00 | 75 | 1004.3 |
| 20260503001259 | 7 | 341 | 4.8 | 8.0 | 0.00 | 0.00 | 0.00 | 70 | 1004.4 |
| 20260502235459 | 7 | 344 | 4.8 | 9.7 | 0.00 | 0.00 | 0.00 | 70 | 1004.5 |
| 20260502234601 | 7 | 336 | 1.6 | 6.4 | 0.00 | 0.00 | 0.00 | 70 | 1004.3 |
| 20260502233659 | 8 | 356 | 4.8 | 6.4 | 0.00 | 0.00 | 0.00 | 70 | 1004.3 |
| 20260502232759 | 8 | 349 | 3.2 | 4.8 | 0.00 | 0.00 | 0.00 | 69 | 1004.4 |
| 20260502231859 | 8 | 345 | 3.2 | 4.8 | 0.00 | 0.00 | 0.00 | 68 | 1004.3 |
| 20260502230059 | 8 | 115 | 1.6 | 3.2 | 0.00 | 0.00 | 0.00 | 66 | 1004.7 |
| 20260502225159 | 8 | 1 | 6.4 | 9.7 | 0.00 | 0.00 | 0.00 | 66 | 1004.9 |
| 20260502224259 | 8 | 329 | 4.8 | 9.7 | 0.00 | 0.00 | 0.00 | 67 | 1004.7 |
| 20260502223359 | 8 | 332 | 4.8 | 8.0 | 0.00 | 0.00 | 0.00 | 66 | 1004.7 |
| 20260502222500 | 8 | 318 | 3.2 | 6.4 | 0.00 | 0.00 | 0.00 | 67 | 1004.5 |
| 20260502221559 | 8 | 329 | 6.4 | 11.3 | 0.00 | 0.00 | 0.00 | 66 | 1004.5 |
| 20260502220659 | 8 | 316 | 11.3 | 11.3 | 0.00 | 0.00 | 0.00 | 65 | 1004.6 |
| 20260502214900 | 8 | 327 | 3.2 | 6.4 | 0.00 | 0.00 | 0.00 | 64 | 1004.7 |
| 20260502213959 | 8 | 326 | 3.2 | 6.4 | 0.00 | 0.00 | 0.00 | 64 | 1004.6 |
| 20260502213059 | 7 | 145 | 1.6 | 4.8 | 0.00 | 0.00 | 0.00 | 63 | 1004.6 |
| 20260502212200 | 8 | 108 | 3.2 | 4.8 | 0.00 | 0.00 | 0.00 | 63 | 1004.6 |
| 20260502211259 | 8 | 300 | 1.6 | 4.8 | 0.00 | 0.00 | 0.00 | 62 | 1004.5 |
| 20260502205459 | 8 | 41 | 0.0 | 1.6 | 0.00 | 0.00 | 0.00 | 62 | 1004.8 |
| 20260502204559 | 8 | 151 | 0.0 | 1.6 | 0.00 | 0.00 | 0.00 | 62 | 1004.6 |
| 20260502203659 | 8 | 208 | 0.0 | 1.6 | 0.00 | 0.00 | 0.00 | 61 | 1004.6 |
| 20260502202759 | 8 | 103 | 1.6 | 3.2 | 0.00 | 0.00 | 0.00 | 60 | 1004.6 |
| 20260502201859 | 8 | 120 | 1.6 | 3.2 | 0.00 | 0.00 | 0.00 | 59 | 1004.6 |
| 20260502200959 | 9 | 115 | 1.6 | 1.6 | 0.00 | 0.00 | 0.00 | 56 | 1004.6 |
| 20260502200059 | 9 | 22 | 1.6 | 1.6 | 0.00 | 0.00 | 0.00 | 56 | 1004.9 |
| 20260502195159 | 10 | 306 | 1.6 | 3.2 | 0.00 | 0.00 | 0.00 | 56 | 1004.9 |
| 20260502193359 | 10 | 225 | 0.0 | 1.6 | 0.00 | 0.00 | 0.00 | 55 | 1004.8 |
| 20260502192459 | 10 | 156 | 1.6 | 3.2 | 0.00 | 0.00 | 0.00 | 54 | 1004.9 |
| 20260502191559 | 10 | 160 | 3.2 | 4.8 | 0.00 | 0.00 | 0.00 | 53 | 1004.7 |
| 20260502190659 | 10 | 288 | 1.6 | 3.2 | 0.00 | 0.00 | 0.00 | 53 | 1004.8 |
| 20260502183959 | 10 | 192 | 1.6 | 3.2 | 0.00 | 0.00 | 0.00 | 51 | 1004.8 |
| 20260502182159 | 11 | 239 | 1.6 | 3.2 | 0.00 | 0.00 | 0.00 | 50 | 1005.0 |
| 20260502181259 | 11 | 253 | 3.2 | 3.2 | 0.00 | 0.00 | 0.00 | 50 | 1004.8 |
| 20260502180359 | 11 | 262 | 3.2 | 4.8 | 0.00 | 0.00 | 0.00 | 50 | 1004.9 |
| 20260502164259 | 11 | 270 | 4.8 | 6.4 | 0.00 | 0.00 | 0.00 | 50 | 1005.5 |
| 20260502163359 | 12 | 313 | 3.2 | 4.8 | 0.00 | 0.00 | 0.00 | 49 | 1005.7 |
| 20260502162459 | 12 | 238 | 1.6 | 4.8 | 0.00 | 0.00 | 0.00 | 50 | 1005.6 |
| 20260502161559 | 12 | 229 | 3.2 | 4.8 | 0.00 | 0.00 | 0.00 | 46 | 1005.7 |
| 20260502160700 | 12 | 318 | 4.8 | 6.4 | 0.00 | 0.00 | 0.00 | 41 | 1005.9 |
| 20260502152159 | 13 | 284 | 3.2 | 9.7 | 0.00 | 0.00 | 0.00 | 34 | 1006.0 |
| 20260502151259 | 13 | 280 | 4.8 | 6.4 | 0.00 | 0.00 | 0.00 | 33 | 1006.2 |
| 20260502150359 | 13 | 244 | 8.0 | 12.9 | 0.00 | 0.00 | 0.00 | 32 | 1006.4 |
| 20260502130659 | 17 | 330 | 9.7 | 17.7 | 0.00 | 0.00 | 0.00 | 30 | 1006.3 |
| 20260502123059 | 17 | 309 | 8.0 | 17.7 | 0.00 | 0.00 | 0.00 | 24 | 1006.6 |
| 20260502122159 | 18 | 252 | 6.4 | 14.5 | 0.00 | 0.00 | 0.00 | 24 | 1006.7 |
| 20260502120359 | 17 | 258 | 4.8 | 8.0 | 0.00 | 0.00 | 0.00 | 28 | 1006.9 |
| 20260502115459 | 16 | 302 | 6.4 | 8.0 | 0.00 | 0.00 | 0.00 | 28 | 1006.8 |
| 20260502114559 | 16 | 293 | 4.8 | 6.4 | 0.00 | 0.00 | 0.00 | 28 | 1006.9 |
| 20260502113700 | 16 | 300 | 6.4 | 11.3 | 0.00 | 0.00 | 0.00 | 28 | 1007.0 |
| 20260502112759 | 16 | 314 | 8.0 | 12.9 | 0.00 | 0.00 | 0.00 | 28 | 1006.9 |
| 20260502111900 | 16 | 300 | 8.0 | 14.5 | 0.00 | 0.00 | 0.00 | 26 | 1007.0 |
| 20260502110959 | 16 | 202 | 8.0 | 12.9 | 0.00 | 0.00 | 0.00 | 28 | 1007.1 |
| 20260502110059 | 17 | 267 | 8.0 | 9.7 | 0.00 | 0.00 | 0.00 | 28 | 1007.1 |
| 20260502105159 | 17 | 249 | 8.0 | 12.9 | 0.00 | 0.00 | 0.00 | 30 | 1007.3 |
| 20260502104259 | 17 | 271 | 8.0 | 12.9 | 0.00 | 0.00 | 0.00 | 30 | 1007.3 |
| 20260502103359 | 17 | 266 | 4.8 | 9.7 | 0.00 | 0.00 | 0.00 | 26 | 1007.6 |
| 20260502101559 | 17 | 250 | 6.4 | 14.5 | 0.00 | 0.00 | 0.00 | 24 | 1007.6 |
| 20260502100659 | 18 | 155 | 8.0 | 9.7 | 0.00 | 0.00 | 0.00 | 26 | 1007.6 |
| 20260502090359 | 17 | 271 | 8.0 | 12.9 | 0.00 | 0.00 | 0.00 | 30 | 1007.7 |
| 20260502070658 | 12 | 224 | 9.7 | 12.9 | 0.00 | 0.00 | 0.00 | 38 | 1008.8 |
| 20260502050748 | 8 | 248 | 12.9 | 16.1 | 0.00 | 0.00 | 0.00 | 44 | 1009.2 |
| 20260502045849 | 7 | 235 | 9.7 | 14.5 | 0.00 | 0.00 | 0.00 | 45 | 1009.2 |
| 20260502044948 | 7 | 248 | 11.3 | 16.1 | 0.00 | 0.00 | 0.00 | 45 | 1009.4 |
| 20260502044049 | 7 | 223 | 9.7 | 12.9 | 0.00 | 0.00 | 0.00 | 46 | 1009.3 |
| 20260502041349 | 7 | 249 | 4.8 | 6.4 | 0.00 | 0.00 | 0.00 | 53 | 1009.6 |
| 20260502040448 | 7 | 230 | 3.2 | 6.4 | 0.00 | 0.00 | 0.00 | 54 | 1009.7 |
| 20260502035548 | 7 | 263 | 4.8 | 6.4 | 0.00 | 0.00 | 0.00 | 54 | 1009.8 |
| 20260502034648 | 7 | 264 | 6.4 | 8.0 | 0.00 | 0.00 | 0.00 | 53 | 1009.7 |
| 20260502033748 | 7 | 234 | 6.4 | 6.4 | 0.00 | 0.00 | 0.00 | 54 | 1010.0 |
| 20260502032848 | 7 | 231 | 6.4 | 8.0 | 0.00 | 0.00 | 0.00 | 54 | 1010.0 |
| 20260502031048 | 7 | 254 | 9.7 | 14.5 | 0.00 | 0.00 | 0.00 | 50 | 1010.3 |
| 20260502030149 | 7 | 269 | 4.8 | 9.7 | 0.00 | 0.00 | 0.00 | 54 | 1010.4 |
| 20260502025248 | 7 | 256 | 3.2 | 6.4 | 0.00 | 0.00 | 0.00 | 50 | 1010.4 |
| 20260502022548 | 8 | 267 | 4.8 | 8.0 | 0.00 | 0.00 | 0.00 | 47 | 1010.8 |